Find Galaxy 2

NORAD ID: 14365 Int'l Des: 1983-098 Owner: HCI Country: US operational
HEOCIRCULAR

Aktuelle Ansicht

3D-Globus wird geladen...

About Galaxy 2

Galaxy 2 (NORAD 14365) is a satellite launched Sep 22, 1983 by HCI of US. It operates in HEO, CIRCULAR orbit with a mass of 676.00 kg.

Nächste Überflüge

Passes for default location (London). Set your location on the main map for personalized predictions.

Höhenverlauf

Loading altitude history...

Zweizeiliger Elementsatz

1 14365U 83098A 26195.16715515 .00000017 00000-0 00000+0 0 9998
2 14365 13.5942 341.7850 0004580 112.2425 79.2682 1.00220142132504
Epoch: 14. Juli 2026 • Age: 9 hours

Aktueller Status

Höhe 35816.3 km
Apogäum / Perigäum N/A
Geschwindigkeit 3.07 km/s
Subsatellitenpunkt -6.06°S, 178.38°W
Startdatum 22. Sept. 1983
Alter 42.8 years
Typ other

Technische Details

Klassifizierung Payload
Masse 676.00 kg
Trockenmasse 540.00 kg
Gesamtmasse 1219.00 kg
Länge 6.80 m
Durchmesser 2.20 m
Spannweite 6.80 m
Form Cyl
Hersteller HSES
Bus-Typ HS-376
Phasenstatus In Orbit
Besitzer/Staat HCI/US

Most Searched